Simultaneous Nadir Overpasses (SNOs) Predictions

Prediction of SNOs between FY3D and AQUA Satellite Orbit:

Table of predicted SNOs for the next 14.0 days since TLE Epoch: 12/3/2022
Index Date (FY3D) Time (FY3D) Lat,Lon (FY3D) SZA (FY3D ) Date (AQUA) Time (AQUA) Lat,Lon (AQUA) SZA (AQUA ) Distance(km) Time Diff (sec)
1 12/04/2022 11:44:48 77.85, -12.98 100.40 12/04/2022 11:45:40 77.84, -12.88 100.38 2.58 52
2 12/04/2022 12:35:16 -77.15, 157.62 80.43 12/04/2022 12:34:50 -77.15, 157.64 80.43 0.68 26
3 12/07/2022 02:21:21 77.82, 128.06 100.70 12/07/2022 02:22:16 77.82, 128.08 100.68 0.68 55
4 12/07/2022 03:11:49 -77.11, -61.35 80.14 12/07/2022 03:11:26 -77.12, -61.39 80.13 1.17 23
5 12/09/2022 16:57:57 77.91, -91.55 101.10 12/09/2022 16:58:54 77.90, -91.44 101.07 2.55 57
6 12/09/2022 17:48:26 -77.25, 78.93 79.70 12/09/2022 17:48:05 -77.25, 78.96 79.70 0.66 21
7 12/12/2022 07:34:31 77.93, 49.25 101.36 12/12/2022 07:35:30 77.93, 49.33 101.33 2.01 59
8 12/12/2022 08:24:59 -77.23,-140.06 79.50 12/12/2022 08:24:40 -77.22,-140.06 79.50 0.20 19
9 12/14/2022 22:11:01 77.83,-169.35 101.42 12/14/2022 22:12:02 77.83,-169.39 101.41 0.97 61



Historial Predications of SNOs between FY3D and AQUA
